User: anonymous   Login
Location: Unspecified
(0.0000°N, 0.0000°E)
Time: 04:48:20
(UTC+02:00)
Language:

Sapphire - Orbit

View from above orbital plane
View from above orbital plane
View from above satellite
View from above satellite

Ground track
Ground track

The orbit data is extracted from the following two-line orbital elements,

1 26932U 01043D   17147.37802446 -.00000067 +00000-0 +61338-5 0  9994
2 26932 067.0544 147.1924 0009186 277.2735 082.7322 14.30249399817391
Epoch (UTC): 27 May 2017 09:04:21
Eccentricity: 0.0009186
inclination: 67.0544°
perigee height: 784 km
apogee height: 797 km
right ascension of ascending node: 147.1924°
argument of perigee: 277.2735°
revolutions per day: 14.30249399
mean anomaly at epoch: 82.7322°
orbit number at epoch: 81739

The dashed part of the orbit path shows where the satellite is in the earth's shadow,  

DLR